CPA829 ROAH-VHHH

Flight info

Callsign CPA829
Flight time 2h 20m
Altitude 34000
Route GANJU Y576 LILRA Y573 SEDKU R595 APU A1 ELATO V522 ABBEY
Aircraft B77W/H-SDE1E2E3FGHIJ2J3J4J5M1RWXY/LB1D1

Departure

Time 2026-04-25 13:07
Airport Naha International Airport (ROAH)

Arrival

Time 2026-04-25 15:27
Airport Hong Kong International Airport (VHHH)
Time Latitude Longitude Altitude Speed Heading
2026-04-25 12:35 26.20860 127.64906 36 ft 0 kts 160°
2026-04-25 12:59 26.20862 127.64905 36 ft 2 kts 160°
2026-04-25 12:59 26.20876 127.64899 36 ft 2 kts 160°
2026-04-25 13:00 26.20890 127.64894 36 ft 2 kts 161°
2026-04-25 13:00 26.20899 127.64890 36 ft 2 kts 161°
2026-04-25 13:00 26.20918 127.64883 35 ft 2 kts 167°
2026-04-25 13:00 26.20933 127.64880 35 ft 2 kts 177°
2026-04-25 13:01 26.20947 127.64880 35 ft 1 kts 185°
2026-04-25 13:01 26.20951 127.64880 35 ft 0 kts 187°
2026-04-25 13:03 26.20948 127.64880 35 ft 1 kts 187°
2026-04-25 13:03 26.20924 127.64870 35 ft 6 kts 214°
2026-04-25 13:03 26.20901 127.64808 33 ft 11 kts 269°
2026-04-25 13:04 26.20947 127.64730 31 ft 12 kts 315°
2026-04-25 13:04 26.20977 127.64649 30 ft 1 kts 268°
2026-04-25 13:05 26.20974 127.64623 29 ft 6 kts 258°
2026-04-25 13:06 26.20945 127.64564 27 ft 10 kts 218°
2026-04-25 13:06 26.20877 127.64532 27 ft 8 kts 186°
2026-04-25 13:06 26.20783 127.64534 28 ft 32 kts 178°
2026-04-25 13:06 26.20286 127.64555 30 ft 109 kts 177°
2026-04-25 13:07 26.19303 127.64603 73 ft 169 kts 178°
2026-04-25 13:07 26.18069 127.64665 705 ft 177 kts 176°
2026-04-25 13:07 26.16868 127.64725 1547 ft 177 kts 177°
2026-04-25 13:07 26.15560 127.64784 1975 ft 196 kts 177°
2026-04-25 13:08 26.14157 127.64846 2459 ft 211 kts 178°
2026-04-25 13:08 26.12621 127.64909 3015 ft 227 kts 181°
2026-04-25 13:08 26.11031 127.64610 3548 ft 241 kts 199°
2026-04-25 13:08 26.09390 127.64010 4154 ft 257 kts 200°
2026-04-25 13:09 26.07668 127.63364 4905 ft 266 kts 200°
2026-04-25 13:09 26.05934 127.62715 5825 ft 267 kts 201°
2026-04-25 13:09 26.04158 127.62050 6702 ft 271 kts 201°
2026-04-25 13:09 26.02369 127.61380 7564 ft 274 kts 201°
2026-04-25 13:10 26.00558 127.60702 8365 ft 279 kts 202°
2026-04-25 13:10 25.98713 127.60013 9249 ft 281 kts 202°
2026-04-25 13:10 25.96892 127.59252 10063 ft 280 kts 213°
2026-04-25 13:10 25.95271 127.58003 10573 ft 291 kts 225°
2026-04-25 13:11 25.93853 127.56328 11011 ft 307 kts 236°
2026-04-25 13:11 25.92580 127.54356 11509 ft 323 kts 236°
2026-04-25 13:11 25.91204 127.52320 12081 ft 338 kts 235°
2026-04-25 13:11 25.89726 127.50251 12682 ft 352 kts 234°
2026-04-25 13:12 25.88155 127.48100 13286 ft 365 kts 233°
2026-04-25 13:12 25.86548 127.45914 14107 ft 372 kts 233°
2026-04-25 13:12 25.84920 127.43683 15018 ft 375 kts 234°
2026-04-25 13:12 25.83947 127.42091 15636 ft 377 kts 240°
2026-04-25 13:13 25.82469 127.38541 16845 ft 382 kts 251°
2026-04-25 13:13 25.81835 127.35707 17663 ft 388 kts 259°
2026-04-25 13:13 25.81620 127.32677 18439 ft 397 kts 268°
2026-04-25 13:13 25.81833 127.29659 19325 ft 401 kts 273°
2026-04-25 13:14 25.82162 127.26578 20137 ft 405 kts 273°
2026-04-25 13:14 25.82486 127.23456 20816 ft 412 kts 273°
2026-04-25 13:14 25.82805 127.20266 21560 ft 417 kts 272°
2026-04-25 13:14 25.83115 127.17088 22338 ft 420 kts 272°
2026-04-25 13:15 25.83421 127.13896 23089 ft 423 kts 272°
2026-04-25 13:15 25.83730 127.10627 23762 ft 428 kts 272°
2026-04-25 13:15 25.84035 127.07357 24416 ft 433 kts 272°
2026-04-25 13:15 25.84345 127.04015 25121 ft 437 kts 271°
2026-04-25 13:16 25.84655 127.00655 25932 ft 438 kts 271°
2026-04-25 13:16 25.84961 126.97324 26686 ft 441 kts 271°
2026-04-25 13:16 25.85269 126.93945 27377 ft 444 kts 271°
2026-04-25 13:16 25.85582 126.90503 28004 ft 449 kts 270°
2026-04-25 13:17 25.85895 126.87041 28653 ft 453 kts 271°
2026-04-25 13:17 25.86206 126.83604 29348 ft 455 kts 270°
2026-04-25 13:17 25.86520 126.80107 30125 ft 454 kts 269°
2026-04-25 13:17 25.86590 126.76668 31043 ft 444 kts 262°
2026-04-25 13:18 25.86239 126.73349 32187 ft 429 kts 255°
2026-04-25 13:18 25.85532 126.70221 33245 ft 415 kts 248°
2026-04-25 13:18 25.84504 126.67249 33922 ft 411 kts 243°
2026-04-25 13:18 25.83193 126.64449 34025 ft 411 kts 239°
2026-04-25 13:19 25.80365 126.58944 34028 ft 405 kts 239°
2026-04-25 13:19 25.78027 126.54404 34029 ft 410 kts 239°
2026-04-25 13:20 25.74737 126.48016 34016 ft 409 kts 239°
2026-04-25 13:20 25.71925 126.42560 34023 ft 411 kts 239°
2026-04-25 13:21 25.69090 126.37063 34014 ft 408 kts 239°
2026-04-25 13:21 25.66282 126.31627 34030 ft 409 kts 238°
2026-04-25 13:22 25.63444 126.26138 34033 ft 407 kts 239°
2026-04-25 13:23 25.59226 126.17992 34026 ft 408 kts 238°
2026-04-25 13:23 25.56397 126.12535 34022 ft 407 kts 238°
2026-04-25 13:24 25.53586 126.07121 34013 ft 407 kts 238°
2026-04-25 13:24 25.50757 126.01679 34006 ft 408 kts 239°
2026-04-25 13:25 25.47934 125.96252 34005 ft 408 kts 238°
2026-04-25 13:25 25.45107 125.90827 34000 ft 408 kts 238°
2026-04-25 13:26 25.42277 125.85402 33999 ft 407 kts 238°
2026-04-25 13:26 25.39426 125.79948 34000 ft 408 kts 238°
2026-04-25 13:27 25.36576 125.74499 34012 ft 416 kts 238°
2026-04-25 13:27 25.33679 125.68997 34007 ft 416 kts 238°
2026-04-25 13:28 25.30746 125.63498 34007 ft 418 kts 238°
2026-04-25 13:28 25.27788 125.57953 34008 ft 416 kts 237°
2026-04-25 13:29 25.24847 125.52447 34005 ft 419 kts 238°
2026-04-25 13:29 25.21897 125.46930 34003 ft 418 kts 238°
2026-04-25 13:30 25.17447 125.38615 33998 ft 417 kts 238°
2026-04-25 13:31 25.13020 125.30361 34013 ft 419 kts 238°
2026-04-25 13:31 25.10007 125.24864 34010 ft 417 kts 234°
2026-04-25 13:32 25.06570 125.19747 34010 ft 418 kts 232°
2026-04-25 13:32 25.03094 125.14635 34008 ft 418 kts 233°
2026-04-25 13:33 24.99596 125.09493 34005 ft 416 kts 232°
2026-04-25 13:33 24.95944 125.04526 34002 ft 417 kts 230°
2026-04-25 13:34 24.92261 124.99590 34000 ft 416 kts 231°
2026-04-25 13:34 24.88605 124.94624 34007 ft 418 kts 234°
2026-04-25 13:35 24.85771 124.89062 34019 ft 420 kts 246°
2026-04-25 13:35 24.84258 124.82878 34011 ft 423 kts 258°
2026-04-25 13:36 24.84176 124.76342 34009 ft 434 kts 270°
2026-04-25 13:36 24.85010 124.69675 34007 ft 441 kts 271°
2026-04-25 13:37 24.85844 124.63042 34014 ft 438 kts 271°
2026-04-25 13:37 24.86665 124.56349 34014 ft 436 kts 271°
2026-04-25 13:38 24.87469 124.49701 33997 ft 436 kts 271°
2026-04-25 13:38 24.88267 124.43043 34020 ft 437 kts 271°
2026-04-25 13:39 24.89055 124.36435 33993 ft 435 kts 271°
2026-04-25 13:39 24.89841 124.29808 34022 ft 436 kts 270°
2026-04-25 13:40 24.90618 124.23221 34022 ft 435 kts 271°
2026-04-25 13:40 24.91388 124.16672 34027 ft 433 kts 271°
2026-04-25 13:41 24.92160 124.10072 34020 ft 434 kts 270°
2026-04-25 13:41 24.92933 124.03445 34032 ft 433 kts 271°
2026-04-25 13:42 24.93677 123.96890 34026 ft 431 kts 270°
2026-04-25 13:42 24.94366 123.90360 34018 ft 432 kts 270°
2026-04-25 13:43 24.95060 123.83782 34012 ft 432 kts 270°
2026-04-25 13:43 24.95751 123.77216 34010 ft 431 kts 270°
2026-04-25 13:44 24.96435 123.70692 34012 ft 432 kts 270°
2026-04-25 13:44 24.97126 123.64056 34348 ft 441 kts 270°
2026-04-25 13:44 24.97477 123.60710 35084 ft 437 kts 270°
2026-04-25 13:45 24.97817 123.57454 35826 ft 432 kts 270°
2026-04-25 13:45 24.98158 123.54166 36011 ft 432 kts 270°
2026-04-25 13:45 24.98498 123.50892 36012 ft 428 kts 270°
2026-04-25 13:46 24.99168 123.44394 36021 ft 426 kts 270°
2026-04-25 13:46 24.99831 123.37945 36009 ft 424 kts 270°
2026-04-25 13:47 25.00492 123.31470 36031 ft 426 kts 270°
2026-04-25 13:47 25.01152 123.24996 36037 ft 426 kts 270°
2026-04-25 13:48 25.01806 123.18552 36030 ft 426 kts 270°
2026-04-25 13:48 25.02462 123.12033 36034 ft 427 kts 270°
2026-04-25 13:49 25.03110 123.05579 36025 ft 423 kts 270°
2026-04-25 13:49 25.03753 122.99127 36028 ft 428 kts 270°
2026-04-25 13:50 25.04402 122.92639 36031 ft 425 kts 270°
2026-04-25 13:50 25.05044 122.86176 36040 ft 427 kts 270°
2026-04-25 13:51 25.05692 122.79628 36040 ft 428 kts 271°
2026-04-25 13:51 25.06330 122.73154 36049 ft 429 kts 270°
2026-04-25 13:52 25.06973 122.66592 36043 ft 430 kts 271°
2026-04-25 13:52 25.07610 122.60066 36040 ft 430 kts 271°
2026-04-25 13:53 25.08244 122.53544 36039 ft 430 kts 271°
2026-04-25 13:53 25.08879 122.46980 36029 ft 430 kts 271°
2026-04-25 13:54 25.09511 122.40405 36030 ft 433 kts 271°
2026-04-25 13:54 25.10140 122.33857 36031 ft 430 kts 270°
2026-04-25 13:55 25.10763 122.27311 36034 ft 431 kts 270°
2026-04-25 13:55 25.11315 122.20748 36035 ft 431 kts 270°
2026-04-25 13:56 25.11864 122.14177 36036 ft 431 kts 270°
2026-04-25 13:56 25.12412 122.07601 36034 ft 431 kts 270°
2026-04-25 13:57 25.12972 122.01012 36033 ft 432 kts 271°
2026-04-25 13:57 25.13580 121.94474 36034 ft 430 kts 271°
2026-04-25 13:58 25.14231 121.87904 36037 ft 434 kts 272°
2026-04-25 13:58 25.14878 121.81327 36037 ft 431 kts 271°
2026-04-25 13:59 25.15519 121.74736 36044 ft 432 kts 272°
2026-04-25 13:59 25.16156 121.68163 36040 ft 432 kts 271°
2026-04-25 14:00 25.16789 121.61589 36045 ft 432 kts 272°
2026-04-25 14:00 25.16685 121.55109 36039 ft 424 kts 257°
2026-04-25 14:01 25.14691 121.49017 36037 ft 421 kts 241°
2026-04-25 14:01 25.11174 121.43836 36037 ft 427 kts 233°
2026-04-25 14:02 25.07328 121.38820 36035 ft 428 kts 232°
2026-04-25 14:02 25.03502 121.33852 36046 ft 428 kts 232°
2026-04-25 14:03 24.99646 121.28858 36050 ft 428 kts 232°
2026-04-25 14:03 24.95774 121.23853 36049 ft 429 kts 232°
2026-04-25 14:04 24.91932 121.18892 36047 ft 428 kts 232°
2026-04-25 14:04 24.88061 121.13902 36057 ft 428 kts 232°
2026-04-25 14:05 24.84202 121.08933 36057 ft 427 kts 232°
2026-04-25 14:05 24.80324 121.03941 36050 ft 428 kts 232°
2026-04-25 14:06 24.76480 120.98998 36044 ft 428 kts 232°
2026-04-25 14:06 24.72602 120.94013 36049 ft 428 kts 232°
2026-04-25 14:07 24.68738 120.89054 36056 ft 430 kts 233°
2026-04-25 14:07 24.64834 120.84049 36060 ft 427 kts 233°
2026-04-25 14:08 24.60987 120.79122 36062 ft 427 kts 233°
2026-04-25 14:08 24.57111 120.74163 36049 ft 427 kts 233°
2026-04-25 14:09 24.53097 120.69315 36039 ft 430 kts 230°
2026-04-25 14:09 24.48926 120.64604 36040 ft 430 kts 230°
2026-04-25 14:10 24.44780 120.59903 36044 ft 429 kts 230°
2026-04-25 14:10 24.40622 120.55177 36040 ft 431 kts 230°
2026-04-25 14:11 24.36484 120.50474 36035 ft 430 kts 230°
2026-04-25 14:11 24.32331 120.45753 36027 ft 430 kts 230°
2026-04-25 14:12 24.28168 120.41026 36029 ft 430 kts 230°
2026-04-25 14:12 24.24027 120.36327 36021 ft 431 kts 230°
2026-04-25 14:13 24.19875 120.31612 36038 ft 431 kts 230°
2026-04-25 14:13 24.15691 120.26868 36021 ft 432 kts 230°
2026-04-25 14:14 24.11527 120.22156 36019 ft 432 kts 230°
2026-04-25 14:14 24.07366 120.17452 36019 ft 431 kts 230°
2026-04-25 14:15 24.03169 120.12711 36015 ft 433 kts 230°
2026-04-25 14:15 23.98982 120.07986 36012 ft 432 kts 230°
2026-04-25 14:16 23.94814 120.03289 36009 ft 432 kts 230°
2026-04-25 14:16 23.90633 119.98583 36008 ft 432 kts 230°
2026-04-25 14:17 23.86433 119.93859 36014 ft 432 kts 230°
2026-04-25 14:17 23.82252 119.89161 36008 ft 431 kts 230°
2026-04-25 14:18 23.78081 119.84480 36017 ft 432 kts 230°
2026-04-25 14:18 23.73888 119.79778 36015 ft 431 kts 230°
2026-04-25 14:19 23.69717 119.75106 36019 ft 430 kts 230°
2026-04-25 14:19 23.65519 119.70406 36021 ft 432 kts 230°
2026-04-25 14:20 23.61340 119.65734 36020 ft 431 kts 230°
2026-04-25 14:20 23.57731 119.60612 36023 ft 427 kts 240°
2026-04-25 14:21 23.54567 119.55143 36024 ft 426 kts 240°
2026-04-25 14:21 23.51419 119.49704 36010 ft 425 kts 240°
2026-04-25 14:22 23.48263 119.44261 36017 ft 425 kts 240°
2026-04-25 14:22 23.45113 119.38835 36005 ft 426 kts 240°
2026-04-25 14:23 23.41938 119.33375 36027 ft 424 kts 240°
2026-04-25 14:23 23.38782 119.27951 36026 ft 425 kts 240°
2026-04-25 14:24 23.35636 119.22551 36023 ft 425 kts 240°
2026-04-25 14:24 23.32481 119.17142 36017 ft 424 kts 240°
2026-04-25 14:25 23.29323 119.11735 36015 ft 425 kts 240°
2026-04-25 14:25 23.26151 119.06308 36016 ft 423 kts 240°
2026-04-25 14:26 23.22980 119.00890 36022 ft 425 kts 240°
2026-04-25 14:26 23.19823 118.95500 36017 ft 425 kts 241°
2026-04-25 14:27 23.16643 118.90077 36011 ft 424 kts 241°
2026-04-25 14:27 23.13460 118.84654 36014 ft 427 kts 241°
2026-04-25 14:28 23.10290 118.79262 36008 ft 423 kts 240°
2026-04-25 14:28 23.07131 118.73890 36011 ft 425 kts 240°
2026-04-25 14:29 23.03949 118.68488 36013 ft 425 kts 241°
2026-04-25 14:29 23.00770 118.63094 36012 ft 426 kts 240°
2026-04-25 14:30 22.97580 118.57688 36011 ft 426 kts 240°
2026-04-25 14:30 22.92782 118.49590 36012 ft 425 kts 241°
2026-04-25 14:31 22.89555 118.44167 36006 ft 428 kts 241°
2026-04-25 14:31 22.86356 118.38798 36011 ft 426 kts 240°
2026-04-25 14:32 22.83152 118.33422 36026 ft 427 kts 240°
2026-04-25 14:32 22.79911 118.27992 36029 ft 427 kts 240°
2026-04-25 14:33 22.76680 118.22583 36021 ft 426 kts 240°
2026-04-25 14:33 22.73486 118.17243 36030 ft 427 kts 240°
2026-04-25 14:34 22.70238 118.11816 36031 ft 427 kts 240°
2026-04-25 14:34 22.67007 118.06425 36026 ft 428 kts 240°
2026-04-25 14:35 22.63781 118.01047 36024 ft 428 kts 240°
2026-04-25 14:35 22.60535 117.95641 36028 ft 429 kts 241°
2026-04-25 14:36 22.57324 117.90243 36025 ft 430 kts 240°
2026-04-25 14:36 22.54090 117.84798 36015 ft 428 kts 241°
2026-04-25 14:37 22.50894 117.79424 36019 ft 428 kts 241°
2026-04-25 14:37 22.47660 117.73992 36018 ft 429 kts 241°
2026-04-25 14:38 22.44433 117.68578 36012 ft 428 kts 241°
2026-04-25 14:38 22.41220 117.63193 36014 ft 430 kts 241°
2026-04-25 14:39 22.37988 117.57783 36012 ft 429 kts 241°
2026-04-25 14:39 22.34902 117.52300 36006 ft 426 kts 248°
2026-04-25 14:40 22.33346 117.46192 36010 ft 423 kts 264°
2026-04-25 14:40 22.33216 117.43115 36008 ft 409 kts 268°
2026-04-25 14:40 22.33160 117.40073 36006 ft 392 kts 268°
2026-04-25 14:41 22.33110 117.37220 35978 ft 377 kts 268°
2026-04-25 14:41 22.33061 117.34435 35891 ft 363 kts 268°
2026-04-25 14:41 22.33013 117.31762 35667 ft 354 kts 268°
2026-04-25 14:41 22.32964 117.29144 35030 ft 354 kts 268°
2026-04-25 14:42 22.32916 117.26526 34102 ft 362 kts 268°
2026-04-25 14:42 22.32882 117.24740 33407 ft 368 kts 268°
2026-04-25 14:42 22.32812 117.21032 32236 ft 374 kts 268°
2026-04-25 14:42 22.32759 117.18229 32036 ft 369 kts 268°
2026-04-25 14:43 22.32706 117.15435 32027 ft 381 kts 268°
2026-04-25 14:43 22.32651 117.12585 32023 ft 381 kts 268°
2026-04-25 14:43 22.32540 117.06893 32024 ft 381 kts 268°
2026-04-25 14:44 22.32427 117.01201 32021 ft 378 kts 268°
2026-04-25 14:44 22.32315 116.95661 32010 ft 360 kts 268°
2026-04-25 14:45 22.32206 116.90358 31908 ft 346 kts 268°
2026-04-25 14:45 22.32152 116.87777 31633 ft 345 kts 268°
2026-04-25 14:45 22.32098 116.85197 31265 ft 346 kts 268°
2026-04-25 14:46 22.32043 116.82604 30954 ft 346 kts 268°
2026-04-25 14:46 22.31988 116.80023 30690 ft 345 kts 269°
2026-04-25 14:46 22.31933 116.77459 30448 ft 344 kts 269°
2026-04-25 14:46 22.31877 116.74878 30172 ft 344 kts 269°
2026-04-25 14:47 22.31821 116.72320 30034 ft 340 kts 269°
2026-04-25 14:47 22.31784 116.70625 30030 ft 345 kts 268°
2026-04-25 14:47 22.31707 116.67152 29504 ft 355 kts 268°
2026-04-25 14:47 22.31646 116.64420 28764 ft 370 kts 268°
2026-04-25 14:48 22.31583 116.61625 28153 ft 376 kts 269°
2026-04-25 14:48 22.31520 116.58819 28038 ft 373 kts 268°
2026-04-25 14:48 22.31391 116.53178 28031 ft 379 kts 269°
2026-04-25 14:49 22.31260 116.47495 28035 ft 379 kts 269°
2026-04-25 14:49 22.31126 116.41809 28031 ft 378 kts 269°
2026-04-25 14:50 22.30991 116.36148 28029 ft 379 kts 269°
2026-04-25 14:50 22.30853 116.30458 28047 ft 379 kts 268°
2026-04-25 14:51 22.30714 116.24812 27946 ft 376 kts 268°
2026-04-25 14:51 22.30644 116.22013 27781 ft 377 kts 268°
2026-04-25 14:51 22.30573 116.19157 27625 ft 377 kts 268°
2026-04-25 14:52 22.30503 116.16379 27448 ft 373 kts 269°
2026-04-25 14:52 22.30432 116.13573 27082 ft 373 kts 269°
2026-04-25 14:52 22.30360 116.10778 26636 ft 374 kts 269°
2026-04-25 14:52 22.30313 116.08921 26375 ft 374 kts 269°
2026-04-25 14:53 22.30216 116.05200 26052 ft 368 kts 269°
2026-04-25 14:53 22.30145 116.02447 26043 ft 370 kts 269°
2026-04-25 14:53 22.30072 115.99676 26042 ft 372 kts 269°
2026-04-25 14:53 22.29998 115.96888 26040 ft 371 kts 269°
2026-04-25 14:54 22.29925 115.94134 26040 ft 371 kts 269°
2026-04-25 14:54 22.29851 115.91361 26040 ft 372 kts 269°
2026-04-25 14:54 22.29776 115.88557 26041 ft 372 kts 269°
2026-04-25 14:54 22.29700 115.85763 26033 ft 371 kts 269°
2026-04-25 14:55 22.29624 115.82997 25977 ft 369 kts 269°
2026-04-25 14:55 22.29551 115.80249 25726 ft 366 kts 269°
2026-04-25 14:55 22.29479 115.77499 25230 ft 368 kts 269°
2026-04-25 14:55 22.29407 115.74766 24774 ft 368 kts 269°
2026-04-25 14:56 22.29334 115.72021 24277 ft 367 kts 269°
2026-04-25 14:56 22.29261 115.69281 23782 ft 365 kts 269°
2026-04-25 14:56 22.29187 115.66536 23282 ft 363 kts 269°
2026-04-25 14:56 22.29113 115.63793 22784 ft 360 kts 269°
2026-04-25 14:57 22.29040 115.61118 22309 ft 358 kts 270°
2026-04-25 14:57 22.28967 115.58453 21829 ft 356 kts 270°
2026-04-25 14:57 22.28894 115.55804 21350 ft 354 kts 270°
2026-04-25 14:57 22.28821 115.53146 20863 ft 352 kts 270°
2026-04-25 14:58 22.28748 115.50522 20387 ft 351 kts 270°
2026-04-25 14:58 22.28675 115.47927 19903 ft 349 kts 270°
2026-04-25 14:58 22.28601 115.45318 19417 ft 348 kts 270°
2026-04-25 14:58 22.28527 115.42696 18931 ft 346 kts 270°
2026-04-25 14:59 22.28454 115.40133 18460 ft 345 kts 270°
2026-04-25 14:59 22.28380 115.37571 17981 ft 343 kts 270°
2026-04-25 14:59 22.28306 115.34979 17498 ft 342 kts 270°
2026-04-25 14:59 22.28231 115.32433 17027 ft 341 kts 270°
2026-04-25 15:00 22.28155 115.29896 16558 ft 340 kts 270°
2026-04-25 15:00 22.28077 115.27349 16079 ft 340 kts 270°
2026-04-25 15:00 22.27999 115.24814 15615 ft 339 kts 270°
2026-04-25 15:00 22.27921 115.22279 15265 ft 336 kts 270°
2026-04-25 15:01 22.27844 115.19775 14997 ft 338 kts 271°
2026-04-25 15:01 22.27764 115.17215 14719 ft 339 kts 271°
2026-04-25 15:01 22.27685 115.14696 14438 ft 338 kts 271°
2026-04-25 15:01 22.27606 115.12164 14151 ft 337 kts 271°
2026-04-25 15:02 22.27526 115.09634 13869 ft 336 kts 271°
2026-04-25 15:02 22.27447 115.07138 13586 ft 336 kts 271°
2026-04-25 15:02 22.27358 115.04625 13286 ft 336 kts 269°
2026-04-25 15:02 22.26852 115.02147 12995 ft 342 kts 252°
2026-04-25 15:03 22.25809 114.99840 12716 ft 343 kts 246°
2026-04-25 15:03 22.24675 114.97572 12431 ft 343 kts 245°
2026-04-25 15:03 22.23555 114.95346 12161 ft 341 kts 245°
2026-04-25 15:03 22.22412 114.93077 11876 ft 339 kts 245°
2026-04-25 15:04 22.21306 114.90881 11588 ft 337 kts 245°
2026-04-25 15:04 22.20183 114.88653 11302 ft 336 kts 244°
2026-04-25 15:04 22.19062 114.86430 11014 ft 335 kts 244°
2026-04-25 15:04 22.17961 114.84248 10736 ft 334 kts 244°
2026-04-25 15:05 22.16856 114.82059 10455 ft 332 kts 244°
2026-04-25 15:05 22.15750 114.79868 10166 ft 331 kts 244°
2026-04-25 15:05 22.14649 114.77689 9875 ft 330 kts 244°
2026-04-25 15:06 22.12459 114.73354 9360 ft 323 kts 243°
2026-04-25 15:06 22.11407 114.71277 9351 ft 308 kts 243°
2026-04-25 15:06 22.10405 114.69299 9303 ft 295 kts 244°
2026-04-25 15:06 22.09434 114.67382 9048 ft 291 kts 244°
2026-04-25 15:07 22.08463 114.65463 8705 ft 290 kts 243°
2026-04-25 15:07 22.07496 114.63553 8369 ft 289 kts 243°
2026-04-25 15:07 22.06547 114.61678 8046 ft 288 kts 243°
2026-04-25 15:07 22.05584 114.59777 7742 ft 286 kts 243°
2026-04-25 15:08 22.04633 114.57899 7435 ft 284 kts 243°
2026-04-25 15:08 22.03691 114.56040 7118 ft 282 kts 243°
2026-04-25 15:08 22.02759 114.54203 6824 ft 280 kts 243°
2026-04-25 15:08 22.01911 114.52314 6508 ft 278 kts 248°
2026-04-25 15:09 22.01178 114.50407 6211 ft 276 kts 249°
2026-04-25 15:09 22.00458 114.48507 5988 ft 272 kts 249°
2026-04-25 15:09 21.98980 114.44630 5970 ft 295 kts 249°
2026-04-25 15:10 21.98186 114.42554 5966 ft 308 kts 249°
2026-04-25 15:10 21.97365 114.40411 5962 ft 311 kts 249°
2026-04-25 15:10 21.95713 114.36102 5962 ft 311 kts 249°
2026-04-25 15:11 21.94896 114.33973 5956 ft 298 kts 248°
2026-04-25 15:11 21.94124 114.31964 5949 ft 283 kts 248°
2026-04-25 15:11 21.93393 114.30059 5828 ft 275 kts 248°
2026-04-25 15:12 21.91930 114.26247 5153 ft 275 kts 248°
2026-04-25 15:12 21.91253 114.24348 4825 ft 274 kts 256°
2026-04-25 15:12 21.90894 114.22337 4486 ft 273 kts 261°
2026-04-25 15:12 21.90697 114.20996 4292 ft 272 kts 262°
2026-04-25 15:13 21.90307 114.18304 3984 ft 268 kts 262°
2026-04-25 15:13 21.90685 114.14381 3960 ft 270 kts 295°
2026-04-25 15:13 21.91489 114.12547 3961 ft 271 kts 296°
2026-04-25 15:14 21.92293 114.10754 3957 ft 259 kts 296°
2026-04-25 15:14 21.93059 114.09054 3956 ft 246 kts 296°
2026-04-25 15:14 21.93801 114.07415 3958 ft 240 kts 297°
2026-04-25 15:14 21.94526 114.05809 3960 ft 239 kts 297°
2026-04-25 15:15 21.95256 114.04191 3961 ft 239 kts 296°
2026-04-25 15:15 21.95973 114.02612 3960 ft 236 kts 297°
2026-04-25 15:15 21.96682 114.01045 3958 ft 230 kts 297°
2026-04-25 15:15 21.97382 113.99492 3960 ft 228 kts 297°
2026-04-25 15:16 21.98069 113.97958 3962 ft 228 kts 297°
2026-04-25 15:16 21.98756 113.96415 3962 ft 228 kts 297°
2026-04-25 15:16 22.00133 113.93317 3963 ft 228 kts 297°
2026-04-25 15:17 22.01508 113.90240 3965 ft 228 kts 296°
2026-04-25 15:17 22.02203 113.88696 3965 ft 228 kts 297°
2026-04-25 15:17 22.02894 113.87158 3968 ft 228 kts 297°
2026-04-25 15:18 22.03588 113.85620 3972 ft 228 kts 297°
2026-04-25 15:18 22.04974 113.82555 3801 ft 229 kts 297°
2026-04-25 15:18 22.05663 113.81034 3634 ft 221 kts 297°
2026-04-25 15:19 22.06322 113.79573 3564 ft 211 kts 297°
2026-04-25 15:19 22.06746 113.78632 3505 ft 204 kts 297°
2026-04-25 15:19 22.07855 113.77100 3226 ft 193 kts 333°
2026-04-25 15:19 22.09100 113.76639 3007 ft 187 kts 347°
2026-04-25 15:20 22.10366 113.76268 2978 ft 188 kts 347°
2026-04-25 15:20 22.11656 113.75892 2975 ft 190 kts 347°
2026-04-25 15:20 22.12919 113.75522 2974 ft 189 kts 347°
2026-04-25 15:20 22.14210 113.75144 2974 ft 190 kts 347°
2026-04-25 15:21 22.15483 113.74772 2974 ft 190 kts 347°
2026-04-25 15:21 22.16764 113.74399 2974 ft 191 kts 347°
2026-04-25 15:21 22.18052 113.74023 2973 ft 191 kts 347°
2026-04-25 15:21 22.19349 113.73644 2974 ft 191 kts 347°
2026-04-25 15:22 22.20637 113.73270 2959 ft 189 kts 347°
2026-04-25 15:22 22.21898 113.72901 2715 ft 191 kts 347°
2026-04-25 15:22 22.23194 113.72520 2459 ft 191 kts 347°
2026-04-25 15:22 22.24472 113.72148 2212 ft 190 kts 352°
2026-04-25 15:23 22.25743 113.72294 1919 ft 185 kts 30°
2026-04-25 15:23 22.26617 113.73263 1592 ft 181 kts 69°
2026-04-25 15:23 22.26677 113.74553 1489 ft 174 kts 100°
2026-04-25 15:23 22.26576 113.75869 1475 ft 174 kts 81°
2026-04-25 15:24 22.26935 113.77119 1478 ft 176 kts 71°
2026-04-25 15:24 22.27369 113.78355 1475 ft 176 kts 71°
2026-04-25 15:24 22.27776 113.79605 1473 ft 176 kts 72°
2026-04-25 15:24 22.28049 113.80447 1472 ft 176 kts 72°
2026-04-25 15:25 22.28588 113.82101 1472 ft 176 kts 72°
2026-04-25 15:25 22.29000 113.83373 1283 ft 179 kts 72°
2026-04-25 15:25 22.29402 113.84609 1052 ft 168 kts 72°
2026-04-25 15:25 22.29778 113.85768 846 ft 160 kts 72°
2026-04-25 15:26 22.30138 113.86879 633 ft 153 kts 72°
2026-04-25 15:26 22.30480 113.87931 449 ft 143 kts 73°
2026-04-25 15:26 22.30803 113.88927 265 ft 140 kts 72°
2026-04-25 15:26 22.31130 113.89914 80 ft 140 kts 72°
2026-04-25 15:27 22.31428 113.90826 42 ft 105 kts 69°
2026-04-25 15:27 22.31607 113.91389 42 ft 51 kts 71°
2026-04-25 15:27 22.31636 113.91779 42 ft 9 kts 111°
2026-04-25 15:28 22.31613 113.91812 42 ft 3 kts 141°
2026-04-25 15:28 22.31609 113.91816 42 ft 0 kts 145°
2026-04-25 15:28 22.31606 113.91818 42 ft 0 kts 149°
2026-04-25 15:28 22.31590 113.91827 42 ft 5 kts 151°
2026-04-25 15:29 22.31535 113.91854 42 ft 11 kts 157°
2026-04-25 15:29 22.31442 113.91891 42 ft 16 kts 160°
2026-04-25 15:29 22.31322 113.91937 42 ft 18 kts 160°
2026-04-25 15:29 22.31205 113.91979 42 ft 17 kts 162°
2026-04-25 15:30 22.31096 113.92019 42 ft 15 kts 161°
2026-04-25 15:30 22.30994 113.92056 42 ft 15 kts 161°
2026-04-25 15:30 22.30899 113.92091 42 ft 14 kts 160°
2026-04-25 15:30 22.30877 113.92100 42 ft 0 kts 160°
2026-04-25 15:31 22.30866 113.92104 42 ft 4 kts 160°
2026-04-25 15:31 22.30826 113.92119 42 ft 6 kts 161°
2026-04-25 15:31 22.30786 113.92134 42 ft 6 kts 160°
2026-04-25 15:31 22.30759 113.92144 42 ft 0 kts 160°
2026-04-25 15:33 22.30729 113.92155 42 ft 7 kts 160°
2026-04-25 15:33 22.30687 113.92208 42 ft 12 kts 93°
2026-04-25 15:33 22.30713 113.92318 42 ft 16 kts 72°
2026-04-25 15:33 22.30749 113.92432 42 ft 15 kts 70°
2026-04-25 15:34 22.30784 113.92535 42 ft 14 kts 71°
2026-04-25 15:34 22.30815 113.92634 42 ft 13 kts 71°
2026-04-25 15:34 22.30844 113.92726 42 ft 12 kts 71°
2026-04-25 15:34 22.30863 113.92783 42 ft 12 kts 70°
2026-04-25 15:35 22.30923 113.92971 42 ft 10 kts 71°
2026-04-25 15:35 22.30947 113.93045 42 ft 10 kts 71°
2026-04-25 15:35 22.30955 113.93071 42 ft 0 kts 71°
2026-04-25 15:37 22.30956 113.93073 42 ft 1 kts 71°
2026-04-25 15:37 22.30966 113.93101 42 ft 5 kts 66°
2026-04-25 15:37 22.31001 113.93139 42 ft 8 kts 15°
2026-04-25 15:37 22.31071 113.93125 42 ft 10 kts 342°
2026-04-25 15:38 22.31140 113.93100 42 ft 10 kts 341°
2026-04-25 15:38 22.31207 113.93086 42 ft 9 kts 14°
2026-04-25 15:38 22.31249 113.93134 42 ft 9 kts 65°
2026-04-25 15:38 22.31273 113.93192 42 ft 7 kts 62°
2026-04-25 15:39 22.31310 113.93209 42 ft 6 kts 354°
2026-04-25 15:39 22.31352 113.93200 42 ft 6 kts 345°
2026-04-25 15:39 22.31367 113.93195 42 ft 0 kts 342°